DW9686 Weather Reports


time (UTC)temp
C
wind
direction
speed
KPH
gust
KPH
rain 1hr
cm
rain 24hr
cm
rain mn
cm
humidity
%
barometer
mb
20260502183035 23 315 4.8 12.9 0.00 0.00 0.00 50 1014.4
20260502181536 22 326 8.0 16.1 0.00 0.00 0.00 52 1014.2
20260502163033 17 323 8.0 17.7 0.00 0.00 0.00 65 1014.5
20260502161532 16 334 6.4 12.9 0.00 0.00 0.00 66 1014.4
20260502151536 15 5 6.4 14.5 0.00 0.00 0.00 69 1014.1
20260502123033 13 9 8.0 17.7 0.00 0.00 0.00 68 1013.5
20260502121535 13 9 8.0 14.5 0.00 0.00 0.00 68 1013.5
20260502114534 13 11 8.0 14.5 0.00 0.00 0.00 69 1013.4
20260502113039 13 12 8.0 14.5 0.00 0.00 0.00 69 1013.4
20260502111530 13 13 6.4 14.5 0.00 0.00 0.00 69 1013.2
20260502110036 13 12 8.0 14.5 0.00 0.00 0.00 69 1013.1
20260502104537 13 12 4.8 12.9 0.00 0.00 0.00 69 1013.4
20260502103034 13 12 4.8 12.9 0.00 0.00 0.00 69 1013.4
20260502101535 13 12 8.0 16.1 0.00 0.00 0.00 69 1013.2
20260502071532 16 12 6.4 14.5 0.00 0.00 0.00 63 1013.1
20260502070052 16 12 6.4 12.9 0.00 0.00 0.00 63 1013.1
20260502064530 16 12 6.4 12.9 0.00 0.00 0.00 62 1013.1
20260502063035 16 12 8.0 14.5 0.00 0.00 0.00 62 1013.1
20260502061531 16 12 6.4 12.9 0.00 0.00 0.00 64 1013.1
20260502060040 16 12 4.8 9.7 0.00 0.00 0.00 63 1013.0
20260502054540 16 12 6.4 12.9 0.00 0.00 0.00 62 1013.2
20260502053031 16 12 4.8 11.3 0.00 0.00 0.00 62 1013.1
20260502051534 17 12 6.4 11.3 0.00 0.00 0.00 61 1013.1
20260502050032 17 12 4.8 8.0 0.00 0.00 0.00 59 1013.1
20260502044531 17 12 4.8 12.9 0.00 0.00 0.00 59 1013.0
20260502043037 17 12 3.2 8.0 0.00 0.00 0.00 59 1013.1
20260502041556 18 12 3.2 8.0 0.00 0.00 0.00 58 1013.1
20260502040048 18 12 3.2 8.0 0.00 0.00 0.00 56 1013.0
20260502034533 18 12 4.8 8.0 0.00 0.00 0.00 57 1012.9
20260502033034 19 12 3.2 6.4 0.00 0.00 0.00 54 1012.8
20260502031533 20 12 3.2 6.4 0.00 0.00 0.00 53 1012.4
20260502030040 20 12 1.6 4.8 0.00 0.00 0.00 52 1012.4
20260502024532 21 12 3.2 6.4 0.00 0.00 0.00 50 1012.3
20260502023046 21 12 3.2 6.4 0.00 0.00 0.00 51 1012.3
20260502021532 22 12 3.2 6.4 0.00 0.00 0.00 51 1012.4
20260502020032 22 12 1.6 6.4 0.00 0.00 0.00 49 1012.4
20260502014538 23 12 3.2 8.0 0.00 0.00 0.00 46 1012.5
20260502013032 24 12 3.2 6.4 0.00 0.00 0.00 44 1012.7
20260502011538 25 12 4.8 11.3 0.00 0.00 0.00 42 1012.7
20260502010031 25 12 3.2 9.7 0.00 0.00 0.00 43 1012.9
20260502004530 25 12 6.4 12.9 0.00 0.00 0.00 39 1013.0
20260502003033 25 13 4.8 12.9 0.00 0.00 0.00 40 1013.1
20260502001538 26 13 6.4 12.9 0.00 0.00 0.00 36 1013.1
20260502000049 26 13 6.4 14.5 0.00 0.00 0.00 34 1013.2
20260501234530 26 15 8.0 14.5 0.00 0.00 0.00 32 1013.2
20260501233032 26 19 8.0 16.1 0.00 0.00 0.00 31 1013.3
20260501231533 27 52 6.4 11.3 0.00 0.00 0.00 32 1013.5
20260501230105 27 53 4.8 9.7 0.00 0.00 0.00 31 1013.8
20260501224544 27 61 0.0 12.9 0.00 0.00 0.00 30 1014.1
20260501223030 27 61 6.4 14.5 0.00 0.00 0.00 30 1014.2
20260501221533 26 59 4.8 17.7 0.00 0.00 0.00 33 1014.4
20260501220034 26 36 6.4 17.7 0.00 0.00 0.00 33 1014.7
20260501214533 25 57 6.4 17.7 0.00 0.00 0.00 34 1015.1
20260501213031 25 53 8.0 19.3 0.00 0.00 0.00 33 1015.5
20260501211536 25 5 6.4 14.5 0.00 0.00 0.00 35 1015.6
20260501210030 25 19 6.4 16.1 0.00 0.00 0.00 36 1015.9
20260501204533 24 12 6.4 12.9 0.00 0.00 0.00 35 1016.0
20260501203033 23 352 4.8 12.9 0.00 0.00 0.00 41 1016.2
20260501201531 23 352 4.8 12.9 0.00 0.00 0.00 40 1016.4
20260501200032 23 5 4.8 12.9 0.00 0.00 0.00 42 1016.5
20260501194532 23 5 6.4 12.9 0.00 0.00 0.00 43 1016.5
20260501193036 22 5 6.4 12.9 0.00 0.00 0.00 47 1016.8
20260501191535 21 12 4.8 11.3 0.00 0.00 0.00 47 1017.0
20260501190033 21 13 3.2 11.3 0.00 0.00 0.00 45 1017.2
20260501184531 21 13 3.2 8.0 0.00 0.00 0.00 46 1017.3